Helliar — 2EPP5 — position and weather

sailwx.info

Track history (hours):
 
Tides and Currents Weather Stations Pressure Air Temp Water Temp Dewpoint Dewpoint Depression Visibility Wind Speed Wind Dir Waves Ship Positions

Helliar

Last reported at 2014-Jul-26 19:09 UTC. Time now 2014-Jul-28 18:33 UTC.
Position N 57°49' W 001°29'.

Length 122 m; draft 5.2 m.

Type: Cargo ship. MMSI: 235087119.

Date/timePositionNaut miles runAvg speedWind from/ knotsBaromVisibWave heightAir tempDewpointWater temp
2014-Jul-26 19:09N 57°49' W 001°29'813.9
2014-Jul-26 18:33N 57°40' W 001°30'1414.0
2014-Jul-26 17:33N 57°27' W 001°39'1414.2
2014-Jul-26 16:33N 57°15' W 001°53'9 8.6
2014-Jul-26 15:27N 57°09' W 002°05'0 0.0
2014-Jul-26 14:27N 57°09' W 002°05'0 0.0
2014-Jul-26 11:15N 57°09' W 002°05'0 0.0
2014-Jul-26 10:33N 57°09' W 002°05'0 0.0
2014-Jul-26 09:33N 57°09' W 002°05'0 0.0
2014-Jul-26 07:20N 57°09' W 002°05'10 5.6
2014-Jul-26 05:33N 57°16' W 001°52'1212.1
2014-Jul-26 04:33N 57°26' W 001°42'1212.5
2014-Jul-26 03:33N 57°39' W 001°38'1414.1
2014-Jul-26 02:33N 57°53' W 001°35'1414.1
2014-Jul-26 01:33N 58°07' W 001°33'3214.4
2014-Jul-25 23:21N 58°38' W 001°27'41 1.5
2014-Jul-24 20:31N 57°57' W 001°34'1313.8
2014-Jul-24 19:34N 57°44' W 001°38'1514.5
2014-Jul-24 18:33N 57°30' W 001°40'1514.8
2014-Jul-24 17:33N 57°16' W 001°52'1110.0
2014-Jul-24 16:30N 57°09' W 002°05'0 0.0
2014-Jul-24 15:30N 57°09' W 002°05'0 0.0
2014-Jul-24 13:30N 57°09' W 002°05'0 0.0
2014-Jul-24 12:18N 57°09' W 002°05'0 0.0
2014-Jul-24 11:30N 57°09' W 002°05'0 0.0
2014-Jul-24 10:24N 57°09' W 002°05'0 0.1
2014-Jul-24 08:33N 57°09' W 002°05'3 2.7
2014-Jul-24 07:27N 57°10' W 001°60'1 1.1
2014-Jul-24 06:31N 57°11' W 001°58'1212.9
2014-Jul-24 05:33N 57°22' W 001°47'1212.2
2014-Jul-24 04:33N 57°33' W 001°41'1312.5
2014-Jul-24 03:33N 57°46' W 001°38'1413.3
2014-Jul-24 02:31N 57°59' W 001°35'1413.3
2014-Jul-24 01:28N 58°13' W 001°32'1313.7
2014-Jul-24 00:32N 58°26' W 001°28'35 1.6
2014-Jul-23 02:09N 57°51' W 001°36'915.0
2014-Jul-23 01:33N 57°42' W 001°39'1414.6
2014-Jul-23 00:33N 57°28' W 001°43'1414.0
2014-Jul-22 23:32N 57°15' W 001°54'8 0.5
2014-Jul-22 07:32N 57°09' W 002°05'0 0.4
2014-Jul-22 06:33N 57°08' W 002°04'1211.2
2014-Jul-22 05:29N 57°18' W 001°51'1213.4
2014-Jul-22 04:33N 57°29' W 001°40'1313.2
2014-Jul-22 03:34N 57°42' W 001°39'  
2014-Jul-19 18:30N 57°43' W 001°31'1212.5
2014-Jul-19 17:33N 57°32' W 001°33'1111.3
2014-Jul-19 16:33N 57°21' W 001°40'27 0.6
2014-Jul-17 20:26N 57°48' W 001°38'1314.3
2014-Jul-17 19:33N 57°35' W 001°41'1313.5
2014-Jul-17 18:33N 57°22' W 001°46'5 0.4
2014-Jul-17 05:33N 57°17' W 001°51'1312.5
2014-Jul-17 04:33N 57°29' W 001°42'1413.8
2014-Jul-17 03:33N 57°43' W 001°39'  
Track history (hours):
 
Tides and Currents Weather Stations Pressure Air Temp Water Temp Dewpoint Dewpoint Depression Visibility Wind Speed Wind Dir Waves Ship Positions

Helliar

Last reported at 2014-Jul-26 19:09 UTC. Time now 2014-Jul-28 18:33 UTC.
Position N 57°49' W 001°29'.

Length 122 m; draft 5.2 m.

Type: Cargo ship. MMSI: 235087119.

Date/timePositionNaut miles runAvg speedWind from/ knotsBaromVisibWave heightAir tempDewpointWater temp
2014-Jul-26 19:09N 57°49' W 001°29'813.9
2014-Jul-26 18:33N 57°40' W 001°30'1414.0
2014-Jul-26 17:33N 57°27' W 001°39'1414.2
2014-Jul-26 16:33N 57°15' W 001°53'9 8.6
2014-Jul-26 15:27N 57°09' W 002°05'0 0.0
2014-Jul-26 14:27N 57°09' W 002°05'0 0.0
2014-Jul-26 11:15N 57°09' W 002°05'0 0.0
2014-Jul-26 10:33N 57°09' W 002°05'0 0.0
2014-Jul-26 09:33N 57°09' W 002°05'0 0.0
2014-Jul-26 07:20N 57°09' W 002°05'10 5.6
2014-Jul-26 05:33N 57°16' W 001°52'1212.1
2014-Jul-26 04:33N 57°26' W 001°42'1212.5
2014-Jul-26 03:33N 57°39' W 001°38'1414.1
2014-Jul-26 02:33N 57°53' W 001°35'1414.1
2014-Jul-26 01:33N 58°07' W 001°33'3214.4
2014-Jul-25 23:21N 58°38' W 001°27'41 1.5
2014-Jul-24 20:31N 57°57' W 001°34'1313.8
2014-Jul-24 19:34N 57°44' W 001°38'1514.5
2014-Jul-24 18:33N 57°30' W 001°40'1514.8
2014-Jul-24 17:33N 57°16' W 001°52'1110.0
2014-Jul-24 16:30N 57°09' W 002°05'0 0.0
2014-Jul-24 15:30N 57°09' W 002°05'0 0.0
2014-Jul-24 13:30N 57°09' W 002°05'0 0.0
2014-Jul-24 12:18N 57°09' W 002°05'0 0.0
2014-Jul-24 11:30N 57°09' W 002°05'0 0.0
2014-Jul-24 10:24N 57°09' W 002°05'0 0.1
2014-Jul-24 08:33N 57°09' W 002°05'3 2.7
2014-Jul-24 07:27N 57°10' W 001°60'1 1.1
2014-Jul-24 06:31N 57°11' W 001°58'1212.9
2014-Jul-24 05:33N 57°22' W 001°47'1212.2
2014-Jul-24 04:33N 57°33' W 001°41'1312.5
2014-Jul-24 03:33N 57°46' W 001°38'1413.3
2014-Jul-24 02:31N 57°59' W 001°35'1413.3
2014-Jul-24 01:28N 58°13' W 001°32'1313.7
2014-Jul-24 00:32N 58°26' W 001°28'35 1.6
2014-Jul-23 02:09N 57°51' W 001°36'915.0
2014-Jul-23 01:33N 57°42' W 001°39'1414.6
2014-Jul-23 00:33N 57°28' W 001°43'1414.0
2014-Jul-22 23:32N 57°15' W 001°54'8 0.5
2014-Jul-22 07:32N 57°09' W 002°05'0 0.4
2014-Jul-22 06:33N 57°08' W 002°04'1211.2
2014-Jul-22 05:29N 57°18' W 001°51'1213.4
2014-Jul-22 04:33N 57°29' W 001°40'1313.2
2014-Jul-22 03:34N 57°42' W 001°39'  
2014-Jul-19 18:30N 57°43' W 001°31'1212.5
2014-Jul-19 17:33N 57°32' W 001°33'1111.3
2014-Jul-19 16:33N 57°21' W 001°40'27 0.6
2014-Jul-17 20:26N 57°48' W 001°38'1314.3
2014-Jul-17 19:33N 57°35' W 001°41'1313.5
2014-Jul-17 18:33N 57°22' W 001°46'5 0.4
2014-Jul-17 05:33N 57°17' W 001°51'1312.5
2014-Jul-17 04:33N 57°29' W 001°42'1413.8
2014-Jul-17 03:33N 57°43' W 001°39'  

Dump ship's entire track history